Flag for Isle of Man Weather past 2 weeks in Douglas, Isle of Man

Now
54 °F

Partly cloudy.


Feels Like: 49 °F
Forecast: N/A
Wind: 18 mph from West

Location: Isle Of Man / Ronaldsway Airport

Current Time: Dec 17, 2014 at 11:28:26 PM

Latest Report: Dec 17, 2014 at 10:50 PM


Visibility: N/A

Pressure: 29.59 "Hg

Humidity: 94%

Dew point: 52 °F

Location of DouglasLocation

Historic Weather in Douglas — Graph

°F

Douglas temperature yesterday

Maximum temperature yesterday: 52 °F (at 10:50 PM)
Minimum temperature yesterday: 45 °F (at 12:50 AM)
Average temperature yesterday: 47 °F

Past Weeks' High & Low Weather Summary

 TemperatureHumidityPressure
High54 °F (Dec 9, 12:50 PM)100% (Dec 6, 3:20 PM)30.39 "Hg (Dec 6, 3:20 PM)
Low36 °F (Dec 12, 1:50 AM)50% (Dec 14, 5:20 PM)29.21 "Hg (Dec 12, 1:50 AM)
Average45 °F79%29.86 "Hg
* Reported Dec 2 9:50 PM — Dec 17 9:50 PM, Douglas, Weather by CustomWeather, © 2014

Note: Actual official high and low records may vary slightly from our data, if they occured in-between our weather recording intervals... More about our weather records

Advertising

Douglas weather history for previous 24 hours

 ConditionsComfort  
Time TempWeatherWind HumidityBarometerVisibility
9:50 PM
Dec 17
52 °FPassing clouds.16 mph94%29.59 "HgN/A
8:50 PM54 °FPassing clouds.16 mph94%29.59 "HgN/A
8:20 PM54 °FPassing clouds.16 mph88%29.59 "HgN/A
7:50 PM54 °FPassing clouds.16 mph88%29.59 "HgN/A
7:20 PM54 °FPassing clouds.16 mph94%29.59 "HgN/A
6:50 PM54 °FPassing clouds.13 mph94%29.59 "HgN/A
6:20 PM54 °FPassing clouds.14 mph94%29.59 "HgN/A
5:50 PM52 °FPassing clouds.10 mph100%29.59 "HgN/A
5:20 PM54 °FPassing clouds.14 mph94%29.59 "HgN/A
4:50 PM54 °FPassing clouds.14 mph94%29.59 "HgN/A
4:20 PM54 °FPassing clouds.15 mph88%29.59 "HgN/A
3:50 PM52 °FPartly sunny.15 mph100%29.59 "HgN/A
3:20 PM52 °FLow clouds.17 mph100%29.59 "HgN/A
2:50 PM52 °FLow clouds.17 mph100%29.59 "HgN/A
2:20 PM52 °FLow clouds.17 mph100%29.59 "HgN/A
1:50 PM52 °FDrizzle. Low clouds.16 mph100%29.59 "HgN/A
1:20 PM52 °FMostly cloudy.18 mph94%29.59 "HgN/A
12:50 PM54 °FPartly sunny.16 mph88%29.59 "HgN/A
12:20 PM54 °FPartly sunny.18 mph88%29.59 "HgN/A
11:50 AM52 °FPartly sunny.15 mph94%29.59 "HgN/A
11:20 AM54 °FBroken clouds.16 mph88%29.62 "HgN/A
10:50 AM54 °FPartly sunny.13 mph88%29.62 "HgN/A
10:20 AM52 °FBroken clouds.15 mph94%29.59 "HgN/A
9:50 AM52 °FPartly sunny.20 mph94%29.59 "HgN/A
9:20 AM52 °FScattered clouds.22 mph94%29.56 "HgN/A
8:50 AM52 °FPassing clouds.22 mph94%29.56 "HgN/A
8:20 AM52 °FPassing clouds.20 mph94%29.53 "HgN/A
7:50 AM52 °FPassing clouds.18 mph94%29.53 "HgN/A
7:20 AM52 °FPassing clouds.18 mph94%29.53 "HgN/A
6:50 AM52 °FLight rain. Passing clouds.21 mph94%29.53 "HgN/A
6:20 AM52 °FPassing clouds.21 mph94%29.53 "HgN/A
5:50 AM52 °FPassing clouds.22 mph94%29.53 "HgN/A
5:20 AM52 °FOvercast.20 mph94%29.53 "HgN/A
4:50 AM54 °FLight rain. Passing clouds.25 mph82%29.50 "HgN/A
3:50 AM54 °FOvercast.28 mph82%29.50 "HgN/A
2:50 AM54 °FOvercast.24 mph82%29.50 "HgN/A
1:50 AM54 °FOvercast.23 mph88%29.47 "HgN/A
11:50 PM
Dec 16
52 °FMostly cloudy.24 mph94%29.50 "HgN/A
Weather by CustomWeather, © 2014

See weather overviewHow to use our weather pages